Zurück zum Katalog

FENGYUN 1C DEB

LostPO
NORAD 38110·DEBRIS·🇨🇳 China

Gestartet May 10, 1999 von Taiyuan Satellite Launch Center

Loading…

Nächste Überflüge (nächste 24 Stunden)

TLE

VeraltetSource: Space-Track

Epoche: Aug 26, 2024, 19:01 UTC

1 38110U 99025EPF 24239.79254808  .00002904  00000-0  18479-2 0  9997
2 38110  98.1142 230.6930 0194782 197.7627 288.5840 13.95483087723042

Verfolge FENGYUN 1C DEB in Echtzeit mit AllMySat

Download on the App Store